CST,Max TemperatureF,Mean TemperatureF,Min TemperatureF,Max Dew PointF,MeanDew PointF,Min DewpointF,Max Humidity, Mean Humidity, Min Humidity, Max Sea Level PressureIn, Mean Sea Level PressureIn, Min Sea Level PressureIn, Max VisibilityMiles, Mean VisibilityMiles, Min VisibilityMiles, Max Wind SpeedMPH, Mean Wind SpeedMPH, Max Gust SpeedMPH,PrecipitationIn, CloudCover, Events, WindDirDegrees
2011-11-1,73,55,37,39,35,31,85,54,22,30.25,30.19,30.14,10,10,10,17,5,24,0.00,0,,171
2011-11-2,72,57,42,50,41,36,76,55,34,30.22,30.11,29.92,10,10,10,20,8,25,0.00,0,,171
2011-11-3,62,54,46,54,42,34,86,71,56,30.10,29.95,29.82,10,9,2,28,16,37,0.31,8,Rain,270
2011-11-4,53,51,48,43,42,39,77,72,66,30.25,30.18,30.10,10,10,10,14,7,21,0.00,7,,3
2011-11-5,64,54,44,45,44,41,93,69,44,30.23,30.16,30.06,10,8,3,12,4,23,0.00,3,,112
2011-11-6,64,57,50,49,44,37,77,62,46,30.22,30.16,30.11,10,10,10,20,10,53,0.00,6,,165
2011-11-7,76,66,55,55,52,49,83,66,49,30.25,30.16,30.08,10,10,10,15,6,20,0.00,2,,167
2011-11-8,74,66,58,61,57,49,97,79,61,30.06,29.92,29.82,10,7,1,23,11,31,1.86,6,Rain-Thunderstorm,164
2011-11-9,64,52,39,61,43,33,93,70,46,30.26,30.05,29.83,10,10,6,28,11,33,0.03,4,Rain,272
2011-11-10,57,45,32,31,26,18,82,52,22,30.32,30.25,30.20,10,10,10,21,7,30,0.00,0,,297
2011-11-11,66,48,29,36,31,27,85,57,28,30.20,30.09,30.01,10,10,10,25,10,33,0.00,0,,213
2011-11-12,64,54,44,49,42,33,71,61,50,30.07,29.98,29.86,10,10,10,28,15,37,0.00,1,,193
2011-11-13,75,68,60,59,56,49,73,65,57,29.86,29.79,29.72,10,10,10,37,23,48,0.00,3,,205
2011-11-14,79,69,59,63,61,54,87,73,58,29.87,29.79,29.71,10,10,9,31,17,40,0.11,5,Rain,213
2011-11-15,60,59,57,57,56,53,93,90,86,29.87,29.82,29.78,10,6,2,14,7,18,3.71,8,Rain-Thunderstorm,80
2011-11-16,60,52,44,56,42,22,87,61,35,30.27,29.93,29.77,10,9,3,23,11,30,0.52,6,Rain,25
2011-11-17,52,41,30,28,23,13,75,48,21,30.42,30.36,30.27,10,10,10,12,3,17,0.00,1,,323
2011-11-18,54,42,29,31,27,24,85,60,35,30.35,30.24,30.10,10,10,10,21,8,26,0.00,0,,169
2011-11-19,68,55,41,54,46,32,77,68,58,30.10,30.03,29.96,10,10,10,28,14,36,0.00,5,,180
2011-11-20,70,60,50,64,57,46,93,83,72,30.16,30.09,30.01,10,6,2,22,9,35,0.46,8,Rain-Thunderstorm,163
2011-11-21,59,54,49,55,51,46,93,90,86,30.17,30.10,29.96,10,4,0,17,5,23,1.22,8,Fog-Rain-Thunderstorm,48
2011-11-22,66,59,51,63,54,43,93,82,71,30.14,29.89,29.74,10,8,2,30,12,37,0.60,7,Rain-Thunderstorm,288
2011-11-23,52,51,50,44,43,42,77,74,71,30.34,30.27,30.15,10,10,10,15,3,25,0.00,8,,356
2011-11-24,51,44,37,44,41,36,100,86,71,30.40,30.32,30.26,10,7,0,9,4,14,0.00,5,Fog,170
2011-11-25,65,52,38,46,42,36,93,71,48,30.24,30.17,30.04,10,6,0,20,7,26,0.00,2,Fog,177
2011-11-26,68,58,47,61,54,42,93,80,67,30.04,29.91,29.84,10,9,2,25,11,33,0.76,7,Rain,206
2011-11-27,47,43,39,43,36,30,92,79,65,30.12,30.03,29.93,10,9,3,17,10,23,0.17,8,Rain,340
2011-11-28,40,37,33,34,31,30,89,80,70,30.08,29.94,29.83,10,7,1,18,10,23,0.39,8,Rain-Snow,321
2011-11-29,46,39,31,32,30,28,89,71,53,30.17,29.93,29.78,10,6,1,20,7,26,0.36,6,Snow,311
2011-11-30,45,36,26,28,23,19,85,63,40,30.26,30.20,30.16,10,10,10,10,4,18,0.00,0,,301